Regional Weather Roundup
Issued by NWS Huntsville, AL

Home | Current Version | Previous Version | Text Only | Print | Product List | Glossary On
Versions: 1 2 3 4 5 6 7 8 9 10 11 12 13 14 15 16 17 18 19 20 21 22 23 24 25 26 27 28 29 30 31 32 33 34 35 36 37 38 39 40 41 42 43 44 45 46 47 48 49 50
000
ASUS44 KHUN 110010
RWRHUN

WEATHER ROUNDUP FOR THE TENNESSEE VALLEY
NATIONAL WEATHER SERVICE HUNTSVILLE AL
600 PM CST SAT DEC 10 2016

ALZ001>004-110100-
NORTHWEST ALABAMA

CITY           SKY/WX    TMP DP  RH WIND       PRES   REMARKS
COURTLAND HCN    N/A     32 N/A N/A CALM        N/A
RUSSELLVILLE     N/A     32 N/A N/A MISG        N/A
SHOALS AIRPORT CLEAR     37  18  46 CALM      30.44R
6HR MIN TEMP:  36; 6HR MAX TEMP:  45;

SHOALS TVA RES   N/A     36 N/A N/A MISG        N/A
$$

ALZ005>007-016-110100-
NORTH CENTRAL ALABAMA

CITY           SKY/WX    TMP DP  RH WIND       PRES   REMARKS
CULLMAN AG STN   N/A     32 N/A N/A CALM        N/A
DECATUR AP     CLEAR     32  22  66 CALM      30.44R
6HR MIN TEMP:  32; 6HR MAX TEMP:  45;

HUNTSVILLE AP  CLEAR     39  17  41 N5        30.43R
6HR MIN TEMP:  39; 6HR MAX TEMP:  46;

MERIDIANVILLE  CLEAR     32  21  64 CALM      30.43R
REDSTONE ARSN  CLEAR     35  16  44 CALM      30.42R
VINEMONT AP    FAIR      30  19  64 CALM      30.43S
$$

ALZ008>010-110100-
NORTHEAST ALABAMA

CITY           SKY/WX    TMP DP  RH WIND       PRES   REMARKS
ALBERTVILLE    CLEAR     34  23  64 E3        30.40S
FORT PAYNE     CLEAR     32  18  55 NE3       30.42S
SCOTTSBORO AP  CLEAR     32  14  47 CALM      30.44S
SCOTTSBORO HCN   N/A     30 N/A N/A MISG        N/A
VALLEY HEAD      N/A     32 N/A N/A MISG        N/A
$$

TNZ076-096-097-110100-
SOUTHEASTERN MIDDLE TENNESSEE

CITY           SKY/WX    TMP DP  RH WIND       PRES   REMARKS
TULLAHOMA      CLEAR     32  14  47 CALM      30.41F
WINCHESTER     CLEAR     28  18  64 CALM      30.43S
$$

...SURROUNDING SITES...

CITY           SKY/WX    TMP DP  RH WIND       PRES   REMARKS
ATLANTA        PTCLDY    43  17  35 SE3       30.42S
ANNISTON       CLEAR     38  20  48 CALM      30.42F
BIRMINGHAM     CLEAR     42  18  37 CALM      30.42F
CHATTANOOGA    CLEAR     34  17  50 N5        30.45S WCI  30
CORINTH        FAIR      34  18  51 CALM      30.42S
DALTON         CLEAR     32  19  59 CALM      30.44S
GADSDEN        CLEAR     36  20  52 CALM      30.43F
GOLDEN TRNGL   CLEAR     39  18  41 CALM      30.38S
HALEYVILLE     FAIR      32  21  64 CALM      30.43
JACKSON TN     CLEAR     32  18  56 SE3       30.41F
MEMPHIS        PTCLDY    42  14  32 SE5       30.39F
NASHVILLE      PTCLDY    36  12  37 CALM      30.45F
OXFORD MS      FAIR      32  19  59 SE3       30.42S
ROME           CLEAR     34  18  52 CALM      30.43S
SAVANNAH       PTCLDY    32  21  64 CALM      30.42S
TUPELO         CLEAR     38  19  46 CALM      30.41F
TUSCALOOSA     CLEAR     40  21  46 NE3       30.42S
$$

...GULF COAST WEATHER...

CITY           SKY/WX    TMP DP  RH WIND       PRES   REMARKS
GULFPORT       CLEAR     44  32  62 CALM      30.40S
PASCAGOULA     CLEAR     38  31  76 CALM      30.40S
MOBILE         CLEAR     41  23  48 CALM      30.40S
GULF SHORES    CLEAR     39  32  75 CALM      30.39S
PENSACOLA      CLEAR     39  29  67 CALM      30.38F
DESTIN         CLEAR     53  23  31 NE5       30.39R
PANAMA CITY    CLEAR     51  26  38 NE7       30.39R
APPALACHICOLA  CLEAR     46  30  53 NE3       30.38R
$$




USA.gov is the U.S. government's official web portal to all federal, state and local government web resources and services.